This is the latest recevied weather packets stored in our database for station/object KB1FPD. If no packets are shown the sender has not sent any weather packets the latest 10 day(s).
| Time | Temp. | Humidity | Pressure | Rain* | Wind** | Luminosity | Snow |
|---|---|---|---|---|---|---|---|
| 1777519180 | 12.78° C | 95% | 1007.7 hPa | 0 mm | - | - | - |
| 1777518879 | 12.78° C | 95% | 1007.4 hPa | 0 mm | - | - | - |
| 1777518578 | 12.78° C | 95% | 1007.6 hPa | 0 mm | - | - | - |
| 1777518280 | 12.78° C | 95% | 1007.8 hPa | 0 mm | - | - | - |
| 1777517979 | 12.78° C | 95% | 1008 hPa | 0 mm | - | - | - |
| 1777517679 | 12.78° C | 95% | 1008.1 hPa | 0 mm | - | - | - |
| 1777517378 | 12.78° C | 95% | 1008.1 hPa | 0 mm | - | - | - |
| 1777517079 | 12.78° C | 95% | 1008.2 hPa | 0 mm | - | - | - |
| 1777516779 | 12.78° C | 95% | 1008.1 hPa | 0 mm | - | - | - |
| 1777516479 | 12.78° C | 95% | 1008.2 hPa | 0 mm | - | - | - |
| 1777516177 | 12.78° C | 95% | 1008.4 hPa | 0 mm | - | - | - |
| 1777515880 | 12.78° C | 95% | 1008.3 hPa | 0.25 mm | - | - | - |
| 1777515577 | 12.78° C | 95% | 1008.4 hPa | 0.25 mm | - | - | - |
| 1777515278 | 12.78° C | 95% | 1008.2 hPa | 0.25 mm | - | - | - |
| 1777514976 | 12.78° C | 95% | 1008.2 hPa | 0.76 mm | - | - | - |
| 1777514675 | 12.78° C | 95% | 1008.1 hPa | 1.02 mm | - | - | - |
| 1777514376 | 12.78° C | 95% | 1008.1 hPa | 1.27 mm | - | - | - |
| 1777514078 | 12.78° C | 95% | 1008 hPa | 1.52 mm | - | - | - |
| 1777513779 | 12.78° C | 95% | 1007.9 hPa | 1.78 mm | - | - | - |
| 1777513483 | 12.78° C | 95% | 1008.1 hPa | 2.54 mm | - | - | - |
| 1777513185 | 12.78° C | 95% | 1007.9 hPa | 3.05 mm | - | - | - |
| 1777512883 | 12.78° C | 95% | 1008.2 hPa | 3.3 mm | - | - | - |
| 1777512578 | 12.78° C | 95% | 1008.1 hPa | 3.81 mm | - | - | - |
| 1777512275 | 12.78° C | 95% | 1007.9 hPa | 3.81 mm | - | - | - |
| 1777511978 | 12.78° C | 95% | 1007.6 hPa | 4.32 mm | - | - | - |
* Rain latest hour (hover to see other rain measurements)
** Current wind speed in m/s (hover to see current wind gust speed)